Location: Nairn
(57.5833°N, 3.8667°W)
Time: 03:03:06
(UTC+00:00)

CZ-4C R/B - Pass Details

Date: 07 August 2020
Orbit: 465 x 635 km, 98.0° (Epoch: 27 September)

Event Time Altitude Azimuth Distance (km) Brightness Sun altitude
Exits shadow 02:39:16 17° 219° (SW) 1,283 4.5 -10.8°
Maximum altitude 02:41:11 26° 265° (W) 974 4.2 -10.6°
Drops below altitude 10° 02:44:14 10° 324° (NW) 1,672 6.0 -10.4°
Sets 02:46:35 0° 337° (NNW) 2,580 7.2 -10.2°
